Regional Weather Roundup
Issued by NWS Lake Charles, LA

Home | Current Version | Previous Version | Text Only | Print | Product List | Glossary On
Versions: 1 2 3 4 5 6 7 8 9 10 11 12 13 14 15 16 17 18 19 20 21 22 23 24 25 26 27 28 29 30 31 32 33 34 35 36 37 38 39 40 41
000
ASUS44 KLCH 220610
RWRLCH
RWRLCH
REGIONAL WEATHER ROUNDUP
NATIONAL WEATHER SERVICE LAKE CHARLES LA
100 AM CDT WED OCT 22 2014

Note: "fair" indicates few or no clouds below 12,000 feet with no
significant weather and/or obstructions to visibility.


ACROSS SOUTHEAST TEXAS

CITY           SKY/WX    TMP DP  RH WIND       PRES   REMARKS
BEAUMONT       CLEAR     63  61  93 N5        30.03S
BEAUMONT CITY    N/A     61  60  98 NE3       30.04S
ORANGE         CLEAR    N/A N/A N/A CALM      30.05F HAZE
JASPER         CLEAR     59  58  97 CALM      30.07F FOG
$$

ACROSS CENTRAL LOUISIANA

CITY           SKY/WX    TMP DP  RH WIND       PRES   REMARKS
LEESVILLE      CLEAR     61  59  95 NE3       30.05S
FULLERTON        N/A     61  57  87 CALM      30.03S FOG
ALEXANDRIA INT CLEAR     64  60  87 NE6       30.04S
ESLER FIELD    PTCLDY    58  57  97 CALM      30.06S
DERIDDER         N/A     60  59  96 CALM      30.07S
OAKDALE        MOCLDY    56  55  95 CALM      30.05S FOG
OPELOUSAS        N/A     57  56  97 N3        30.04S
$$

ACROSS SOUTHWEST AND SOUTH CENTRAL LOUISIANA

CITY           SKY/WX    TMP DP  RH WIND       PRES   REMARKS
SULPHUR        CLEAR     63  62  97 CALM      30.04F
LAKE CHARLES   CLEAR     61  60  97 CALM      30.04S FOG
CHENNAULT INT  CLEAR     63  61  93 CALM      30.04F
CAMERON PHI      N/A     66  63  88 NE6       30.06S
DEQUINCY         N/A     62  60  91 CALM      30.05S
JENNINGS         N/A     62  59  90 CALM      30.04S
LAFAYETTE      CLEAR     61  58  90 CALM      30.04S
NEW IBERIA     CLEAR     66  60  81 NE9       30.03F
ABBEVILLE        N/A     57  56  96 CALM      30.03S
PATTERSON      CLEAR     61  57  88 CALM      30.05S
SALT POINT       N/A     65  60  84 CALM      30.02S
$$

SELECTED SITES ACROSS THE REGION

CITY           SKY/WX    TMP DP  RH WIND       PRES   REMARKS
HOUSTON BUSH   PTCLDY    65  61  87 CALM      30.03F
HOUSTON HOBBY  PTCLDY    66  61  84 CALM      30.02S
GALVESTON      CLEAR     72  67  84 NE7       30.02F HAZE
COLLEGE STAT   PTCLDY    66  59  78 CALM      30.04F
CONROE         CLEAR     59  57  93 CALM      30.05S
HUNTSVILLE     CLEAR     62  59  90 CALM      30.05F
LUFKIN         PTCLDY    63  59  87 CALM      30.05F FOG
SHREVEPORT     CLEAR     61  59  93 CALM      30.07S
MONROE         CLEAR     62  57  83 NE7       30.08S
NATCHEZ MS     CLEAR     55  54  94 CALM      30.06F
BATON ROUGE    CLEAR     61  57  87 N3        30.03F
N.O. INTL ARPT CLEAR     64  56  75 CALM      30.02F
SLIDELL        CLEAR     55  52  89 N6        30.02F
$$

MARINE REPORTS

STATION/POSITION TIME  TEMP    WIND        PRES    VSBY  WAVE
                       AIR SEA DIR/SP/G                  HT/PER
                 (UTC) (F)     (DEG/KT/KT) (MB)    (MI)  (FT/S)
BUOY 30 S HIGH I 0600   77 78   70/ 14/ 16 1015.9F         3/ 6
SEA RIM ST PARK  0600   69      50/  6/  6 1017.3F
PORT ARTHUR      0600      76   CALM  /  2 1017.0S
SABINE PASS N    0600   69 74   30/  5/  6 1017.0F
TEXAS POINT      0600   67 75   40/  6/  7 1017.0F
CALCASIEU PASS   0600   69 74   60/  7/  8   N/A
LK CHARLES BEACH 0600   68 77              1017.2F
MARSH ISLAND     NOT AVBL
FRESH WATER LOCK 0600   65 75   40/  6/  7 1016.5S
AMERADA PASS     0600   66 72  340/  1/  3 1016.3F
$$



USA.gov is the U.S. government's official web portal to all federal, state and local government web resources and services.